Wind_Speed
26 25 23 23 24 23 22 21 21 19 19 20 21 21 21 21 21 22 23 23 23 23 24 24 24 24 25 24 24 24 24 23 22 22 23 23 23 25 26 28 29 30 31
26 26 25 25 25 24 24 23 22 21 22 23 25 25 25 25 26 26 27 27 27 26 26 27 27 27 28 28 27 27 26 25 25 25 26 26 27 28 29 30 32 33 35
26 26 27 27 26 27 26 24 24 25 26 27 29 29 29 29 30 30 30 30 30 29 30 30 30 30 30 30 30 29 28 28 28 28 28 29 30 31 33 34 36 38 39
26 27 27 29 29 29 29 28 29 30 31 31 31 32 32 32 34 34 33 33 33 33 33 33 33 32 33 33 33 32 32 31 31 31 32 34 35 36 37 39 41 43 44
29 29 30 31 31 32 33 33 34 34 34 35 35 36 35 36 36 36 35 35 35 36 36 36 34 35 35 34 34 34 35 35 35 36 37 39 39 40 41 43 45 47 50
32 33 33 33 34 35 36 37 36 36 36 37 38 38 37 37 37 36 36 37 37 38 37 36 36 37 37 36 36 38 37 39 40 41 42 43 44 45 46 48 49 52 54
33 34 35 36 36 36 36 38 38 37 38 39 40 40 38 38 38 38 39 39 38 38 38 39 39 39 38 39 41 42 42 43 44 45 46 47 49 50 51 52 54 55 57
34 34 35 37 37 38 39 39 39 39 40 41 41 40 39 39 39 39 40 40 40 40 41 41 42 42 43 43 44 44 46 46 48 49 50 52 53 54 55 56 57 58 59
35 36 37 38 39 40 41 41 41 41 41 41 41 41 41 41 41 41 41 41 42 42 43 44 44 45 46 46 47 47 49 50 52 53 54 55 56 58 58 58 59 60 61
36 36 37 39 41 41 42 42 42 42 42 42 42 41 41 41 42 41 42 42 43 44 45 46 47 48 49 49 50 51 53 54 55 56 57 58 59 59 60 61 62 63 64
36 37 39 41 42 42 42 43 43 43 43 42 42 41 40 41 41 42 42 43 44 45 46 48 50 51 52 53 54 55 57 57 58 59 59 60 60 60 61 63 63 64 64
36 38 39 39 41 41 42 42 42 42 42 41 41 41 41 42 43 44 45 45 46 48 50 51 52 54 56 57 58 59 60 60 60 60 60 61 61 62 62 62 63 63 63
32 34 35 36 38 39 39 39 40 40 40 40 41 42 43 44 45 46 47 48 50 52 54 55 57 59 60 60 61 61 60 60 60 60 61 61 62 62 62 61 61 61 61
30 31 32 34 34 35 37 38 38 39 40 42 43 43 45 46 48 49 51 53 55 57 58 59 60 61 61 61 61 61 60 61 61 61 61 61 60 60 59 59 58 58 59
28 29 28 30 32 34 36 37 38 40 42 43 44 46 47 49 50 51 53 55 56 57 58 58 58 59 59 60 60 60 61 61 61 60 59 58 57 57 56 56 56 56 56
28 29 28 28 30 31 33 35 37 39 41 42 44 46 47 49 50 50 51 51 52 53 55 55 56 57 58 59 59 59 59 59 58 57 55 54 54 54 54 55 54 52 49
29 30 30 30 30 30 32 34 36 38 39 41 42 43 44 45 46 47 48 49 50 52 54 55 55 56 56 57 57 57 56 55 55 54 52 52 51 51 50 49 46 44 41
28 29 30 30 30 30 31 32 33 35 37 39 40 41 42 43 44 45 47 48 49 50 52 53 54 55 55 54 54 54 53 52 51 50 48 47 46 45 43 40 37 35 34
26 26 26 27 28 28 30 31 32 34 35 37 38 39 40 41 42 43 45 46 47 48 49 50 50 51 50 50 50 49 48 47 45 43 42 40 39 36 33 30 29 28 27
23 24 25 25 25 27 28 29 31 32 33 34 35 36 38 39 40 41 42 43 45 46 46 46 46 45 45 43 42 41 40 38 37 35 33 31 29 26 24 23 22 21 20
21 22 23 24 24 25 26 27 28 29 31 32 33 34 35 36 37 38 39 41 41 41 41 41 40 39 38 36 34 32 30 29 27 25 23 21 19 17 17 16 16 15 14
20 20 21 23 24 24 26 26 27 27 28 28 29 31 32 33 34 35 36 36 36 36 35 34 33 31 30 28 26 23 21 19 17 15 14 12 11 11 10 10 10 10 11
19 20 20 21 22 23 23 23 23 24 24 25 26 28 29 30 31 32 32 32 32 31 30 28 26 24 22 20 17 15 13 12 10 8 7 6 6 6 7 7 8 9 10
18 19 20 20 20 20 20 20 21 22 22 23 24 25 26 27 27 27 27 27 27 25 24 22 20 18 16 13 11 10 8 7 5 4 3 4 4 5 6 7 8 9 10
17 18 18 18 18 18 18 19 20 20 21 22 23 23 23 24 24 25 24 23 22 21 20 18 16 14 12 10 8 6 5 4 4 5 5 6 6 7 8 8 9 11 11
14 15 15 16 16 17 17 18 18 19 20 20 20 20 21 21 22 22 21 20 19 18 16 14 12 10 8 7 6 6 6 6 7 7 8 8 8 9 9 10 11 12 13
Wind_Direction
239 244 248 250 252 253 257 256 259 262 262 268 273 275 278 282 284 286 288 288 287 289 292 296 298 299 303 305 307 308 305 302 301 297 294 292 290 288 287 286 286 284 283
241 246 248 253 256 258 262 263 262 265 267 269 274 274 275 279 282 284 285 285 285 286 287 292 294 296 299 300 301 302 300 299 297 294 292 291 290 287 285 284 284 285 283
243 247 252 256 261 260 264 265 263 264 265 269 272 271 274 277 280 280 281 282 284 284 286 290 292 292 294 295 295 296 298 296 294 293 292 290 289 287 286 285 284 284 283
246 250 255 258 261 262 263 263 267 268 265 267 270 273 274 277 278 279 277 280 282 281 283 285 287 288 292 292 292 294 296 294 293 291 291 290 288 286 285 285 284 283 282
250 253 256 260 263 265 266 267 268 269 269 270 273 275 273 277 278 278 278 279 281 281 283 282 284 288 291 290 290 293 294 294 293 291 291 289 287 286 285 284 284 283 283
250 254 257 261 263 265 267 268 269 271 270 270 274 275 274 277 278 280 281 279 281 283 284 284 288 289 289 289 289 293 293 293 292 291 290 289 287 287 286 285 284 284 284
249 254 257 259 262 264 265 269 272 271 273 275 275 275 278 280 281 282 280 282 284 283 283 286 288 288 290 290 290 292 292 291 291 290 290 289 289 287 287 286 286 285 285
246 251 255 258 261 264 267 270 271 273 274 276 277 274 278 278 280 282 281 283 283 284 284 285 287 288 289 290 290 290 291 291 291 290 291 291 290 289 288 288 287 287 286
247 251 255 258 261 264 267 270 273 275 276 277 278 278 278 278 279 281 281 282 282 284 285 286 287 289 289 289 289 289 290 290 290 291 292 291 291 291 290 289 289 288 288
247 251 255 258 261 264 267 269 272 274 276 277 278 278 278 279 280 281 282 283 284 284 285 286 287 289 289 289 289 289 290 290 291 291 291 291 291 291 291 291 290 289 289
248 251 254 256 259 262 265 267 270 272 274 275 276 276 277 279 280 281 283 284 284 285 286 287 288 288 289 289 289 289 290 291 291 291 291 291 291 291 291 291 291 290 290
250 251 252 253 256 259 263 266 268 270 271 273 274 276 278 279 280 281 283 284 284 284 284 286 288 288 288 288 288 289 290 290 291 291 291 291 291 291 291 291 291 291 291
257 256 255 256 258 259 261 264 266 268 270 272 274 276 278 279 280 281 282 283 283 284 285 286 286 287 287 288 288 289 289 290 290 291 291 291 292 292 292 292 292 293 293
263 261 258 257 257 258 259 262 264 267 269 271 273 275 277 279 280 281 282 282 282 283 284 285 286 286 287 288 289 289 289 290 290 291 291 292 292 292 292 293 293 293 294
266 261 260 259 260 262 262 264 266 269 271 272 273 275 276 277 279 281 282 282 283 283 284 286 286 286 286 287 288 289 289 289 290 290 291 291 291 292 292 292 293 294 294
266 264 263 264 266 266 266 267 269 271 273 274 275 276 277 278 279 281 283 284 285 286 287 287 288 288 288 288 289 289 289 289 289 289 290 290 291 292 292 293 294 294 295
274 275 272 272 272 271 274 276 277 277 276 277 280 282 282 283 284 285 288 289 289 289 289 289 289 289 289 289 288 287 287 288 288 289 290 290 291 292 293 294 295 296 297
280 278 279 278 276 277 278 279 279 279 280 282 284 286 288 290 291 290 291 291 291 291 291 290 290 290 289 289 288 288 288 288 288 288 289 290 292 293 294 296 297 299 301
285 282 281 281 279 278 279 282 282 283 285 287 288 290 292 292 292 292 292 293 293 294 293 293 293 292 291 290 289 289 288 288 288 289 290 291 292 294 295 297 299 302 305
286 286 287 286 284 283 283 284 287 289 291 292 293 294 294 294 294 295 296 296 296 296 297 296 296 295 294 293 292 292 291 290 289 289 291 292 293 294 297 300 304 307 311
286 286 285 285 287 288 290 292 294 295 295 296 297 297 297 297 298 299 300 300 301 301 300 300 299 298 297 296 296 295 293 292 291 292 292 293 294 297 301 306 311 315 320
287 287 288 288 289 292 293 294 295 297 298 299 300 301 302 302 302 303 304 305 305 306 305 304 302 301 301 300 299 298 296 296 296 295 296 298 302 306 314 322 328 333 337
289 291 292 293 294 296 296 297 299 300 302 304 306 307 308 308 309 310 310 311 311 311 310 310 309 308 307 306 305 305 306 308 307 306 311 317 324 334 342 348 351 353 353
294 294 295 296 297 298 299 300 302 304 306 309 311 314 315 317 318 319 318 318 318 318 317 317 318 318 317 317 317 318 322 328 335 344 357 10 19 18 15 13 11 8 6
295 295 296 297 297 299 301 304 306 308 310 313 315 318 321 324 325 326 326 327 326 326 326 326 327 328 331 334 339 348 4 25 46 60 60 54 48 42 35 30 25 20 16
300 299 300 300 301 302 304 307 309 312 315 318 320 323 326 329 330 332 334 336 336 337 339 341 343 347 356 7 20 38 55 66 73 73 69 63 56 48 43 36 29 24 20
Height
5862 5864 5866 5867 5868 5868 5869 5869 5869 5870 5869 5870 5870 5870 5870 5869 5869 5869 5867 5866 5864 5863 5861 5860 5858 5856 5855 5852 5851 5849 5847 5846 5844 5842 5840 5838 5835 5833 5830 5828 5825 5823 5821
5856 5859 5860 5861 5862 5862 5863 5863 5863 5864 5864 5864 5863 5863 5863 5862 5862 5861 5860 5858 5857 5855 5854 5852 5851 5850 5848 5846 5845 5843 5841 5839 5838 5836 5834 5832 5830 5827 5824 5821 5819 5816 5813
5851 5853 5855 5856 5857 5857 5857 5858 5858 5859 5858 5857 5856 5855 5855 5854 5854 5853 5852 5851 5849 5847 5846 5845 5843 5842 5841 5839 5838 5836 5834 5833 5831 5829 5827 5825 5823 5820 5817 5813 5810 5807 5804
5845 5847 5849 5850 5852 5852 5852 5852 5853 5852 5851 5850 5848 5847 5847 5847 5845 5844 5843 5842 5841 5839 5838 5836 5835 5834 5832 5831 5829 5828 5826 5825 5823 5821 5818 5816 5814 5811 5808 5805 5801 5798 5794
5839 5841 5843 5844 5845 5845 5845 5845 5845 5844 5844 5843 5841 5840 5840 5839 5837 5836 5834 5834 5833 5831 5829 5828 5827 5825 5824 5822 5821 5819 5818 5816 5814 5811 5809 5806 5804 5801 5798 5795 5791 5787 5782
5833 5834 5836 5837 5838 5838 5839 5838 5836 5836 5836 5835 5834 5833 5832 5830 5829 5828 5826 5825 5824 5822 5820 5819 5818 5817 5815 5814 5812 5810 5808 5806 5803 5801 5798 5795 5792 5789 5786 5783 5779 5775 5769
5827 5828 5829 5830 5831 5832 5832 5831 5829 5828 5828 5827 5826 5824 5823 5822 5821 5820 5816 5816 5815 5813 5812 5811 5810 5807 5806 5804 5802 5800 5798 5795 5792 5789 5786 5783 5780 5776 5773 5769 5765 5761 5755
5821 5822 5823 5823 5824 5824 5823 5823 5820 5820 5820 5819 5816 5814 5814 5813 5814 5812 5809 5808 5807 5805 5804 5802 5800 5799 5797 5794 5792 5789 5786 5783 5780 5777 5773 5770 5766 5762 5758 5754 5750 5745 5740
5813 5814 5815 5815 5816 5815 5815 5814 5813 5812 5812 5811 5810 5808 5807 5806 5805 5804 5803 5801 5799 5797 5795 5793 5790 5788 5786 5783 5780 5777 5774 5770 5767 5763 5759 5755 5751 5747 5742 5737 5733 5729 5724
5804 5805 5806 5807 5807 5807 5807 5806 5805 5804 5804 5803 5801 5800 5799 5797 5796 5795 5793 5791 5789 5787 5785 5782 5780 5777 5774 5771 5768 5764 5761 5757 5753 5749 5745 5740 5736 5731 5726 5721 5715 5711 5706
5795 5796 5797 5797 5798 5798 5798 5798 5797 5796 5795 5794 5793 5791 5790 5789 5787 5785 5783 5781 5779 5776 5774 5771 5768 5765 5761 5758 5754 5751 5747 5743 5738 5734 5730 5725 5720 5715 5709 5704 5698 5692 5687
5787 5788 5788 5788 5789 5789 5789 5789 5788 5788 5787 5786 5784 5783 5781 5779 5777 5775 5773 5771 5768 5765 5762 5759 5755 5751 5748 5744 5740 5736 5732 5728 5723 5719 5714 5709 5704 5699 5693 5687 5681 5675 5670
5779 5779 5780 5780 5780 5780 5781 5780 5779 5779 5778 5777 5776 5774 5772 5770 5768 5765 5763 5760 5757 5753 5750 5746 5742 5738 5734 5730 5725 5721 5717 5712 5707 5702 5697 5692 5687 5682 5676 5671 5665 5660 5654
5771 5771 5771 5771 5772 5772 5772 5771 5771 5770 5769 5768 5766 5764 5762 5760 5758 5755 5752 5749 5745 5741 5737 5733 5728 5724 5719 5714 5710 5706 5701 5696 5691 5686 5681 5676 5671 5666 5661 5655 5650 5645 5639
5764 5764 5764 5763 5763 5764 5763 5763 5762 5761 5760 5758 5756 5754 5752 5750 5747 5743 5740 5736 5732 5728 5724 5719 5714 5709 5704 5699 5694 5689 5684 5680 5675 5670 5665 5661 5656 5651 5646 5641 5636 5631 5625
5756 5757 5757 5756 5756 5756 5755 5754 5753 5752 5750 5748 5746 5743 5741 5738 5735 5731 5727 5723 5719 5714 5710 5705 5700 5694 5689 5684 5678 5673 5668 5663 5659 5654 5650 5646 5642 5637 5632 5627 5622 5617 5613
5749 5748 5748 5748 5748 5748 5747 5746 5744 5743 5741 5738 5735 5733 5730 5726 5723 5719 5714 5710 5705 5701 5696 5690 5685 5679 5673 5667 5662 5657 5652 5648 5644 5640 5636 5632 5628 5623 5619 5614 5610 5606 5601
5742 5741 5740 5740 5740 5739 5738 5736 5735 5733 5731 5728 5725 5722 5718 5715 5711 5707 5702 5698 5693 5687 5682 5676 5670 5663 5657 5652 5646 5642 5637 5634 5630 5626 5623 5619 5616 5612 5608 5604 5600 5596 5593
5734 5734 5733 5732 5731 5730 5729 5728 5725 5723 5721 5718 5715 5711 5708 5704 5700 5695 5690 5685 5680 5674 5668 5661 5655 5648 5642 5637 5632 5627 5623 5620 5617 5614 5611 5608 5605 5602 5599 5596 5593 5589 5585
5727 5726 5725 5724 5723 5722 5720 5719 5716 5714 5711 5708 5705 5701 5697 5693 5689 5684 5678 5672 5667 5661 5654 5648 5641 5635 5629 5623 5619 5615 5611 5608 5605 5603 5601 5599 5597 5595 5593 5590 5587 5584 5580
5721 5720 5718 5717 5716 5714 5712 5710 5708 5705 5702 5699 5695 5692 5688 5683 5678 5672 5667 5661 5655 5649 5642 5636 5629 5623 5618 5613 5609 5605 5602 5599 5597 5596 5594 5593 5592 5590 5588 5586 5584 5581 5578
5715 5713 5712 5710 5709 5707 5704 5702 5700 5697 5694 5690 5687 5683 5678 5673 5668 5663 5657 5651 5644 5638 5631 5625 5620 5614 5609 5605 5601 5598 5595 5593 5592 5591 5590 5589 5588 5587 5586 5584 5581 5579 5576
5708 5707 5705 5704 5702 5700 5697 5695 5692 5689 5686 5683 5679 5675 5670 5664 5659 5653 5647 5641 5635 5629 5623 5617 5612 5607 5603 5599 5597 5594 5592 5591 5590 5589 5588 5587 5587 5586 5585 5583 5581 5578 5576
5703 5701 5699 5698 5696 5693 5691 5689 5686 5683 5680 5676 5672 5667 5662 5657 5651 5646 5640 5634 5629 5623 5617 5612 5608 5603 5600 5597 5594 5592 5591 5590 5589 5588 5588 5587 5587 5586 5584 5583 5581 5579 5576
5697 5696 5694 5692 5690 5688 5685 5683 5680 5677 5674 5670 5665 5660 5656 5651 5646 5640 5635 5629 5624 5618 5614 5609 5605 5602 5599 5596 5594 5592 5591 5590 5589 5589 5589 5588 5588 5587 5585 5584 5582 5579 5577
5692 5691 5689 5687 5685 5682 5680 5677 5674 5671 5667 5663 5659 5655 5651 5646 5642 5637 5631 5626 5621 5616 5612 5608 5604 5602 5599 5597 5595 5594 5593 5592 5591 5591 5591 5590 5589 5588 5587 5585 5583 5580 5578